Location: ??????????
(42.1626°N, 44.1160°E)
Time: 12:01:15
(UTC+00:00)

MOS 1 Rocket - Pass Details

Date: 03 March 2021
Orbit: 615 x 829 km, 97.4° (Epoch: 20 April)

Event Time Altitude Azimuth Distance (km) Brightness Sun altitude
Rises 15:14:52 0° 10° (N) 3,190 6.6 -4.3°
Reaches altitude 10° 15:17:07 10° 8° (N) 2,294 5.9 -4.7°
Maximum altitude 15:22:11 74° 284° (WNW) 820 3.9 -5.7°
Drops below altitude 10° 15:27:29 10° 200° (SSW) 2,390 6.4 -6.6°
Sets 15:29:52 0° 199° (SSW) 3,334 7.1 -7.1°
